Location: Newark
(60.0000°N, 100.0000°E)
Time: 22:10:13
(UTC+00:00)

N. Korean satellite - Pass Details

Date: 20 November 2019
Orbit: 456 x 506 km, 97.2° (Epoch: 05 December)

Event Time Altitude Azimuth Distance (km) Brightness Sun altitude
Rises 22:55:15 0° 19° (NNE) 2,624 10.4 -18.3°
Reaches altitude 10° 22:57:28 10° 28° (NNE) 1,731 9.6 -18.1°
Maximum altitude 23:00:58 37° 97° (E) 802 8.3 -17.6°
Drops below altitude 10° 23:04:24 10° 166° (SSE) 1,702 9.6 -17.2°
Sets 23:06:34 0° 175° (S) 2,574 10.4 -16.9°
